When you browse on this site, cookies collect data to enhance your experience and personalize the content and advertising you see.
Visit our Privacy Policy to learn more. By continuing to use the site, you agree to this use of cookies and data.
  • In Hungary
  • List of Countries
  • For 7 days
  • Water Temperature
  • Satellite Maps
  • Weather Map
  • News
  • Weather Widgets
  • user-avatar
    Login

    Hourly Weather Calatayud

    Today, 26 June, Wednesday

    Time Temperature Precipitation Wind Pressure Humidity
    00:00 +24°C° 0 mm 2 mps 716 mmHg 62%
    01:00 +23°C° 0 mm 2 mps 715 mmHg 68%
    02:00 +21°C° 0 mm 2 mps 715 mmHg 73%
    03:00 +20°C° 0 mm 2 mps 715 mmHg 78%
    04:00 +22°C° 0 mm 1 mps 715 mmHg 77%
    05:00 +22°C° 0 mm 1 mps 715 mmHg 76%
    06:00 +22°C° 0 mm 1 mps 716 mmHg 75%
    07:00 +25°C° 0 mm 2 mps 716 mmHg 64%
    08:00 +27°C° 0 mm 2 mps 716 mmHg 52%
    09:00 +29°C° 0 mm 2 mps 716 mmHg 41%
    10:00 +31°C° 0 mm 3 mps 717 mmHg 37%
    11:00 +34°C° 0 mm 4 mps 717 mmHg 33%
    12:00 +36°C° 0 mm 5 mps 717 mmHg 29%
    13:00 +38°C° 0 mm 6 mps 717 mmHg 27%
    14:00 +39°C° 0 mm 7 mps 717 mmHg 26%
    15:00 +40°C° 0 mm 8 mps 716 mmHg 24%
    16:00 +40°C° 0 mm 8 mps 716 mmHg 24%
    17:00 +39°C° 0 mm 8 mps 716 mmHg 25%
    18:00 +39°C° 0 mm 7 mps 716 mmHg 25%
    19:00 +35°C° 0 mm 6 mps 717 mmHg 32%
    20:00 +32°C° 0 mm 4 mps 717 mmHg 39%
    21:00 +28°C° 0 mm 3 mps 717 mmHg 45%
    22:00 +27°C° 0 mm 2 mps 717 mmHg 49%
    23:00 +26°C° 0 mm 2 mps 718 mmHg 52%

    Tomorrow, 27 June, Thursday

    Time Temperature Precipitation Wind Pressure Humidity
    00:00 +25°C° 0 mm 2 mps 718 mmHg 56%
    01:00 +24°C° 0 mm 2 mps 718 mmHg 57%
    02:00 +23°C° 0 mm 1 mps 718 mmHg 59%
    03:00 +23°C° 0 mm 1 mps 717 mmHg 61%
    04:00 +23°C° 0 mm 1 mps 718 mmHg 59%
    05:00 +24°C° 0 mm 1 mps 718 mmHg 57%
    06:00 +25°C° 0 mm 1 mps 718 mmHg 56%
    07:00 +27°C° 0 mm 2 mps 718 mmHg 47%
    08:00 +29°C° 0 mm 3 mps 718 mmHg 38%
    09:00 +33°C° 0 mm 4 mps 718 mmHg 30%
    10:00 +35°C° 0 mm 6 mps 718 mmHg 24%
    11:00 +39°C° 0 mm 7 mps 718 mmHg 19%
    12:00 +43°C° 0 mm 8 mps 718 mmHg 14%
    13:00 +43°C° 0 mm 8 mps 718 mmHg 13%
    14:00 +44°C° 0 mm 9 mps 718 mmHg 12%
    15:00 +45°C° 0 mm 9 mps 718 mmHg 11%
    16:00 +44°C° 0 mm 9 mps 718 mmHg 12%
    17:00 +41°C° 0 mm 8 mps 717 mmHg 13%
    18:00 +40°C° 0 mm 7 mps 717 mmHg 15%
    19:00 +38°C° 0 mm 6 mps 717 mmHg 18%
    20:00 +34°C° 0 mm 4 mps 717 mmHg 22%
    21:00 +30°C° 0 mm 3 mps 718 mmHg 25%
    22:00 +29°C° 0 mm 3 mps 717 mmHg 28%
    23:00 +28°C° 0 mm 2 mps 717 mmHg 31%

    Day after tomorrow, 28 June, Friday

    Time Temperature Precipitation Wind Pressure Humidity
    00:00 +27°C° 0 mm 2 mps 717 mmHg 33%
    01:00 +26°C° 0 mm 1 mps 717 mmHg 34%
    02:00 +25°C° 0 mm 1 mps 716 mmHg 36%
    03:00 +24°C° 0 mm 1 mps 716 mmHg 37%
    04:00 +25°C° 0 mm 1 mps 716 mmHg 37%
    05:00 +27°C° 0 mm 1 mps 717 mmHg 38%
    06:00 +28°C° 0 mm 1 mps 717 mmHg 38%
    07:00 +28°C° 0 mm 0 mps 717 mmHg 31%
    08:00 +30°C° 0 mm 0 mps 717 mmHg 24%
    09:00 +33°C° 0 mm 0 mps 717 mmHg 18%
    10:00 +36°C° 0 mm 1 mps 717 mmHg 16%
    11:00 +39°C° 0 mm 1 mps 717 mmHg 13%
    12:00 +40°C° 0 mm 2 mps 717 mmHg 11%
    13:00 +42°C° 0 mm 3 mps 716 mmHg 11%
    14:00 +42°C° 0 mm 3 mps 716 mmHg 10%
    15:00 +43°C° 0 mm 4 mps 716 mmHg 10%
    16:00 +42°C° 0 mm 5 mps 716 mmHg 11%
    17:00 +42°C° 0 mm 5 mps 715 mmHg 11%
    18:00 +41°C° 0 mm 5 mps 715 mmHg 12%
    19:00 +39°C° 0 mm 5 mps 715 mmHg 15%
    20:00 +35°C° 0 mm 4 mps 715 mmHg 17%
    21:00 +33°C° 0 mm 3 mps 716 mmHg 20%
    22:00 +31°C° 0 mm 3 mps 716 mmHg 22%
    23:00 +30°C° 0 mm 3 mps 716 mmHg 24%

    29 June, Saturday

    Time Temperature Precipitation Wind Pressure Humidity
    00:00 +29°C° 0 mm 3 mps 716 mmHg 25%
    01:00 +28°C° 0 mm 2 mps 715 mmHg 27%
    02:00 +27°C° 0 mm 2 mps 715 mmHg 29%
    03:00 +26°C° 0 mm 1 mps 715 mmHg 31%
    04:00 +27°C° 0 mm 1 mps 715 mmHg 33%
    05:00 +28°C° 0 mm 1 mps 715 mmHg 35%
    06:00 +27°C° 0 mm 0 mps 715 mmHg 37%
    07:00 +29°C° 0 mm 0 mps 716 mmHg 31%
    08:00 +31°C° 0 mm 0 mps 716 mmHg 24%
    09:00 +35°C° 0 mm 1 mps 716 mmHg 17%
    10:00 +37°C° 0 mm 1 mps 716 mmHg 15%
    11:00 +39°C° 0 mm 1 mps 716 mmHg 13%
    12:00 +41°C° 0 mm 2 mps 716 mmHg 10%
    13:00 +42°C° 0 mm 2 mps 716 mmHg 10%
    14:00 +42°C° 0 mm 2 mps 715 mmHg 9%
    15:00 +44°C° 0 mm 3 mps 715 mmHg 9%
    16:00 +43°C° 0 mm 4 mps 715 mmHg 10%
    17:00 +43°C° 0 mm 5 mps 715 mmHg 11%
    18:00 +42°C° 0 mm 6 mps 715 mmHg 11%
    19:00 +40°C° 0 mm 5 mps 715 mmHg 14%
    20:00 +36°C° 0 mm 5 mps 716 mmHg 16%
    21:00 +34°C° 0 mm 5 mps 716 mmHg 19%
    22:00 +32°C° 0 mm 4 mps 716 mmHg 22%
    23:00 +30°C° 0 mm 3 mps 716 mmHg 26%

    30 June, Sunday

    Time Temperature Precipitation Wind Pressure Humidity
    00:00 +28°C° 0 mm 2 mps 716 mmHg 29%
    01:00 +27°C° 0 mm 2 mps 716 mmHg 37%
    02:00 +26°C° 0 mm 1 mps 716 mmHg 44%
    03:00 +24°C° 0 mm 1 mps 716 mmHg 52%
    04:00 +25°C° 0 mm 1 mps 716 mmHg 50%
    05:00 +26°C° 0 mm 1 mps 716 mmHg 47%
    06:00 +27°C° 0 mm 1 mps 717 mmHg 45%
    07:00 +29°C° 0 mm 1 mps 717 mmHg 37%
    08:00 +32°C° 0 mm 1 mps 717 mmHg 29%
    09:00 +34°C° 0 mm 1 mps 717 mmHg 21%
    10:00 +36°C° 0 mm 1 mps 717 mmHg 19%
    11:00 +39°C° 0 mm 2 mps 717 mmHg 16%
    12:00 +42°C° 0 mm 3 mps 717 mmHg 13%
    13:00 +42°C° 0 mm 3 mps 717 mmHg 13%
    14:00 +43°C° 0 mm 4 mps 717 mmHg 12%
    15:00 +45°C° 0 mm 5 mps 716 mmHg 12%
    16:00 +43°C° 0 mm 5 mps 716 mmHg 12%
    17:00 +42°C° 0 mm 5 mps 716 mmHg 13%
    18:00 +42°C° 0 mm 6 mps 716 mmHg 14%
    19:00 +39°C° 0 mm 5 mps 716 mmHg 17%
    20:00 +36°C° 0 mm 4 mps 717 mmHg 21%
    21:00 +33°C° 0 mm 3 mps 717 mmHg 24%
    22:00 +31°C° 0 mm 3 mps 717 mmHg 26%
    23:00 +29°C° 0 mm 2 mps 717 mmHg 29%

    1 July, Monday

    Time Temperature Precipitation Wind Pressure Humidity
    00:00 +28°C° 0 mm 2 mps 716 mmHg 31%
    01:00 +27°C° 0 mm 2 mps 716 mmHg 33%
    02:00 +26°C° 0 mm 2 mps 716 mmHg 35%
    03:00 +26°C° 0 mm 1 mps 716 mmHg 38%
    04:00 +26°C° 0 mm 1 mps 716 mmHg 39%
    05:00 +27°C° 0 mm 1 mps 716 mmHg 41%
    06:00 +27°C° 0 mm 1 mps 717 mmHg 42%
    07:00 +29°C° 0 mm 1 mps 717 mmHg 37%
    08:00 +31°C° 0 mm 1 mps 717 mmHg 33%
    09:00 +33°C° 0 mm 1 mps 717 mmHg 28%
    10:00 +35°C° 0 mm 2 mps 716 mmHg 26%
    11:00 +36°C° 0 mm 2 mps 716 mmHg 24%
    12:00 +38°C° 0 mm 3 mps 716 mmHg 23%
    13:00 +38°C° 0 mm 4 mps 716 mmHg 23%
    14:00 +40°C° 0 mm 5 mps 715 mmHg 23%
    15:00 +40°C° 0 mm 6 mps 715 mmHg 23%
    16:00 +39°C° 0 mm 6 mps 715 mmHg 26%
    17:00 +36°C° 0 mm 6 mps 714 mmHg 29%
    18:00 +35°C° 0 mm 6 mps 714 mmHg 32%
    19:00 +33°C° 0.1 mm 6 mps 715 mmHg 41%
    20:00 +29°C° 0.1 mm 6 mps 715 mmHg 50%
    21:00 +27°C° 0.1 mm 6 mps 715 mmHg 59%
    22:00 +25°C° 0.1 mm 5 mps 715 mmHg 64%
    23:00 +24°C° 0.1 mm 3 mps 715 mmHg 70%
    Show more